World > North America > United States > South Carolina > Clemson  

Clemson, SC Hourly Weather Updates

Feedback E-mail the Weather

Quick WX

Clemson, SC Weather Maps

°F °C°F °C
Clemson Weather Map
UTC Time: 3/1/2024, 22:07
Your Time:

Clemson, SC Regional Weather

Expires:202403012200;;226596
ASUS42 KCAE 012110
RWRCAE
REGIONAL WEATHER ROUNDUP
NATIONAL WEATHER SERVICE COLUMBIA SC
400 PM EST FRI MAR 01 2024

NOTE: "FAIR" INDICATES FEW OR NO CLOUDS BELOW 12,000 FEET WITH NO
SIGNIFICANT WEATHER AND/OR OBSTRUCTIONS TO VISIBILITY.

NOT ALL STATIONS ARE QUALITY CONTROLLED BY THE NATIONAL 
WEATHER SERVICE. USE DATA WITH CAUTION...ESPECIALLY 
DEWPOINT OBSERVATIONS.


SCZ001>059-115-116-135>137-GAZ040-063>065-077-012200-
...UPSTATE SOUTH CAROLINA...
  
CITY           SKY/WX    TMP DP  RH WIND       PRES   REMARKS
ANDERSON       RAIN      40  37  89 VRB7      30.34F FOG              
LIBERTY        SNOW      40  40 100 E5        30.32R VSB 1/2          
SPARTANBURG    HVY RAIN  37  36  93 NE15      30.33F WCI  28          
CLEMSON        HVY RAIN  40  40 100 CALM      30.35R FOG              
GREENVILLE     HVY RAIN  38  36  92 NE16G32   30.32F FOG     WCI  29  
GREENWOOD      LGT RAIN  40  39  97 N9G20     30.34F FOG     WCI  34  
GREER          HVY RAIN  38  35  89 NE15      30.35S FOG     WCI  29  
ROCK HILL      RAIN      41  40  96 NE12      30.33S FOG              
CHESTER        RAIN      41  41 100 N7        30.36R                  
LAURENS        MIX PCPN  39  39 100 N9        30.34R WCI  33          


...CENTRAL SOUTH CAROLINA...
  
CITY           SKY/WX    TMP DP  RH WIND       PRES   REMARKS
COLUMBIA APT   LGT RAIN  47  47 100 NW6       30.27F FOG              
COLUMBIA OWENS CLOUDY    48  47  96 NW3       30.28F FOG              
MCENTIRE ANGB  CLOUDY    51  50  94 NE7       30.24F                  
ORANGEBURG     HVY RAIN  53  51  93 E3        30.25S FOG              
SUMTER SHAW    CLOUDY    54  52  94 E8        30.26F                  
AIKEN          LGT RAIN  45  44  97 N6        30.30R FOG              
BARNWELL       DRIZZLE   48  48 100 NW3       30.26S                  
MANNING        DRIZZLE   55  54  94 E7        30.26F                  
CAMDEN         DRIZZLE   50  50 100 NE9       30.29F                  
LANCASTER      HVY RAIN  45  43  93 NE9       30.30F                  
WINNSBORO      HVY RAIN  45  45 100 CALM      30.30R                  


...EASTERN AND COASTAL SOUTH CAROLINA...
  
CITY           SKY/WX    TMP DP  RH WIND       PRES   REMARKS
MYRTLE BEACH   CLOUDY    59  56  89 E12       30.33F                  
N MYRTLE BCH   CLOUDY    61  52  72 E16G29    30.33F                  
CONWAY         CLOUDY    59  54  82 E8        30.33S                  
MARION         LGT RAIN  55  55 100 SE6       30.33F                  
HARTSVILLE     LGT RAIN  52  52 100 E7        30.31F                  
FLORENCE       LGT RAIN  58  55  90 E14       30.31F FOG              
DARLINGTON     RAIN      54  54 100 NE9       30.32F FOG              
CHARLESTON APT LGT RAIN  64  60  87 E15G24    30.24F                  
MOUNT PLEASANT CLOUDY    63  63 100 E9        30.25F FOG              
WALTERBORO     RAIN      61  61 100 E9        30.23F                  
BEAUFORT       HVY RAIN  64  62  93 E12G26    30.22S FOG              
HILTON HEAD    RAIN      63  61  94 MISG      30.22F                  


...EASTERN GEORGIA...
  
CITY           SKY/WX    TMP DP  RH WIND       PRES   REMARKS
AUGUSTA BUSH F CLOUDY    45  44  97 N10       30.28S                  
AUGUSTA DANIEL CLOUDY    44  42  93 NW9       30.28F                  
THOMSON        CLOUDY    42  41  95 N10       30.29F FOG              
WASHINGTON     RAIN      41  40  98 N8        30.32F FOG              
CLAXTON        CLOUDY    56  53  89 N5        30.22S                  
SYLVANIA       LGT RAIN  51  50  98 CALM      30.23F                  
STATESBORO     CLOUDY    51  49  94 N6        30.22F                  
SAVANNAH       TSTM      65  63  93 S9        30.21  FOG              


...SOUTHERN NORTH CAROLINA...
  
CITY           SKY/WX    TMP DP  RH WIND       PRES   REMARKS
CHARLOTTE      HVY RAIN  41  38  89 N12       30.34F FOG              
MONROE         RAIN      43  41  93 NE7       30.32F FOG              
WADESBORO      RAIN      48  47  97 N3        30.35F                  
ROCKINGHAM     CLOUDY    52  49  89 CALM      30.35S                  
RUTHERFORDTON  LGT RAIN  36  36 100 N9        30.38F WCI  29          
ASHEVILLE      HVY RAIN  37  35  92 CALM      30.34F FOG              

$$
  

SKY/WX - Weather  TMP - Temperature  DP - Dew Point  RH - Humidity
WIND - Wind Direction/Speed PRES - Barometric Pressure VSB - Visibility
WCI - Wind Chill Index E13G22 Wind - East Wind 13 mph/Gusts of 22 mph

Trending Headlines

Trending Entertainment Headlines

Clemson Radar Loop

Use the map search tool if you want to place a location marker on the radar map...

Clemson Quick Facts

National Two Day Weather Forecast


E-mail the Clemson Weather Forecast

Voice your opinion or tell us about page issues...